GW5561 Weather Reports


Display with metric or nautical units.
time (UTC)temp
F
wind
direction
speed
MPH
gust
MPH
rain 1hr
in
rain 24hr
in
rain mn
in
humidity
%
barometer
mb
20260906153138 95 323 2.0 3.0 0.00 0.00 0.00 49 1012.1
20260906152633 95 127 1.0 5.0 0.00 0.00 0.00 51 1012.1
20260906152126 95 33 2.0 3.0 0.00 0.00 0.00 50 1012.0
20260906151621 94 95 0.0 2.0 0.00 0.00 0.00 51 1012.1
20260906151118 94 76 1.0 3.0 0.00 0.00 0.00 54 1012.1
20260906150613 93 140 4.0 5.0 0.00 0.00 0.00 53 1012.0
20260906150108 92 124 2.0 5.0 0.00 0.00 0.00 55 1011.8
20260906145606 93 108 2.0 2.0 0.00 0.00 0.00 55 1011.9
20260906145101 92 142 2.0 2.0 0.00 0.00 0.00 56 1011.8
20260906144555 92 71 1.0 2.0 0.00 0.00 0.00 56 1011.9
20260906144051 92 65 1.0 1.0 0.00 0.00 0.00 56 1011.8
20260906143546 91 100 0.0 1.0 0.00 0.00 0.00 62 1011.8
20260906143043 90 100 0.0 1.0 0.00 0.00 0.00 65 1011.8
20260906142542 90 86 0.0 1.0 0.00 0.00 0.00 63 1011.9
20260906142038 88 87 0.0 0.0 0.00 0.00 0.00 70 1011.4
20260906141536 87 87 0.0 0.0 0.00 0.00 0.00 73 1011.6
20260906141032 86 76 0.0 0.0 0.00 0.00 0.00 76 1011.8
20260906140531 83 76 0.0 0.0 0.00 0.00 0.00 80 1011.3
20260906140031 82 76 0.0 0.0 0.00 0.00 0.00 83 1011.3
20260906135528 81 77 0.0 0.0 0.00 0.00 0.00 84 1011.2
20260906135024 80 77 0.0 0.0 0.00 0.00 0.00 84 1011.0
20260906134519 80 77 0.0 0.0 0.00 0.00 0.00 84 1011.0
20260906134014 79 77 0.0 0.0 0.00 0.00 0.00 85 1011.0
20260906133510 78 76 0.0 0.0 0.00 0.00 0.00 86 1011.0
20260906133005 76 76 0.0 0.0 0.00 0.00 0.00 90 1010.8
20260906132500 75 77 0.0 0.0 0.00 0.00 0.00 91 1010.9
20260906131955 74 77 0.0 0.0 0.00 0.00 0.00 94 1010.7
20260906131451 73 76 0.0 0.0 0.00 0.00 0.00 97 1010.7
20260906130946 72 76 0.0 0.0 0.00 0.00 0.00 98 1010.7
20260906130445 71 77 0.0 0.0 0.00 0.00 0.00 98 1010.6
20260906125940 71 77 0.0 0.0 0.00 0.00 0.00 98 1010.6
20260906125438 70 77 0.0 0.0 0.00 0.00 0.00 99 1010.6
20260906124937 70 76 0.0 0.0 0.00 0.00 0.00 99 1010.6
20260906124433 70 77 0.0 0.0 0.00 0.00 0.00 99 1010.7
20260906123933 69 77 0.0 0.0 0.00 0.00 0.00 99 1010.6
20260906123433 69 76 0.0 0.0 0.00 0.00 0.00 99 1010.6
20260906122933 69 76 0.0 0.0 0.00 0.00 0.00 99 1010.3
20260906122427 69 76 0.0 0.0 0.00 0.00 0.00 99 1010.2
20260906121925 69 76 0.0 0.0 0.00 0.00 0.00 99 1010.2
20260906121420 69 76 0.0 0.0 0.00 0.00 0.00 99 1010.0
20260906120917 69 76 0.0 0.0 0.00 0.00 0.00 99 1010.0
20260906120412 69 75 0.0 0.0 0.00 0.00 0.00 99 1010.4
20260906115908 69 75 0.0 0.0 0.00 0.00 0.00 99 1010.0
20260906115403 69 75 0.0 0.0 0.00 0.00 0.00 99 1010.0
20260906114902 69 75 0.0 0.0 0.00 0.00 0.00 99 1009.9
20260906114357 69 75 0.0 0.0 0.00 0.00 0.00 99 1010.1
20260906113853 69 75 0.0 0.0 0.00 0.00 0.00 99 1010.1
20260906113352 69 75 0.0 0.0 0.00 0.00 0.00 99 1010.2
20260906112848 69 74 0.0 1.0 0.00 0.00 0.00 99 1010.1
20260906112344 69 88 0.0 0.0 0.00 0.00 0.00 99 1010.2
20260906111843 69 96 0.0 0.0 0.00 0.00 0.00 99 1009.9
20260906111343 69 64 2.0 2.0 0.00 0.00 0.00 99 1010.0
20260906110838 69 91 0.0 0.0 0.00 0.00 0.00 99 1009.8
20260906110334 69 56 0.0 0.0 0.00 0.00 0.00 99 1009.8
20260906105833 69 67 0.0 0.0 0.00 0.00 0.00 99 1010.1
20260906105329 69 73 0.0 0.0 0.00 0.00 0.00 99 1009.7
20260906104825 69 81 0.0 0.0 0.00 0.00 0.00 99 1009.9
20260906104323 69 82 0.0 0.0 0.00 0.00 0.00 99 1009.6
20260906103822 69 81 0.0 0.0 0.00 0.00 0.00 99 1009.7
20260906103320 69 81 0.0 0.0 0.00 0.00 0.00 99 1009.7
20260906102817 69 81 0.0 0.0 0.00 0.00 0.00 99 1009.6
20260906102315 69 81 0.0 0.0 0.00 0.00 0.00 99 1009.4
20260906101811 69 81 0.0 0.0 0.00 0.00 0.00 99 1009.5
20260906101306 69 81 0.0 0.0 0.00 0.00 0.00 99 1009.3
20260906100801 69 81 0.0 0.0 0.00 0.00 0.00 99 1009.4
20260906100301 69 81 0.0 0.0 0.00 0.00 0.00 99 1009.4
20260906095756 69 81 0.0 0.0 0.00 0.00 0.00 99 1009.5
20260906095251 69 81 0.0 0.0 0.00 0.00 0.00 99 1009.4
20260906094750 69 80 0.0 0.0 0.00 0.00 0.00 98 1009.3
20260906094245 69 80 0.0 0.0 0.00 0.00 0.00 98 1009.4
20260906093742 69 80 0.0 0.0 0.00 0.00 0.00 98 1009.2
20260906093237 70 80 0.0 0.0 0.00 0.00 0.00 98 1009.4
20260906092732 70 81 0.0 0.0 0.00 0.00 0.00 98 1009.4
20260906092232 70 81 0.0 0.0 0.00 0.00 0.00 98 1009.0
20260906091728 70 81 0.0 0.0 0.00 0.00 0.00 98 1009.2
20260906091224 70 80 0.0 0.0 0.00 0.00 0.00 98 1009.2
20260906090720 70 81 0.0 0.0 0.00 0.00 0.00 98 1009.3
20260906090219 70 81 0.0 0.0 0.00 0.00 0.00 98 1009.0
20260906085718 70 81 0.0 0.0 0.00 0.00 0.00 98 1009.1
20260906085218 70 81 0.0 0.0 0.00 0.00 0.00 98 1009.2
20260906084713 70 81 0.0 0.0 0.00 0.00 0.00 98 1009.1
20260906084212 70 82 0.0 0.0 0.00 0.00 0.00 98 1009.1
20260906083708 70 82 0.0 0.0 0.00 0.00 0.00 97 1009.0
20260906083203 70 82 0.0 0.0 0.00 0.00 0.00 97 1009.3
20260906082658 70 81 0.0 0.0 0.00 0.00 0.00 97 1009.3
20260906082153 71 82 0.0 0.0 0.00 0.00 0.00 97 1009.2
20260906081649 71 80 0.0 0.0 0.00 0.00 0.00 97 1009.1
20260906081144 71 82 0.0 0.0 0.00 0.00 0.00 97 1009.2
20260906080640 71 82 0.0 0.0 0.00 0.00 0.00 97 1009.2
20260906080136 71 82 0.0 0.0 0.00 0.00 0.00 97 1009.2
20260906075636 71 80 0.0 0.0 0.00 0.00 0.00 97 1009.2
20260906075130 71 83 0.0 0.0 0.00 0.00 0.00 96 1009.2
20260906074626 71 84 0.0 0.0 0.00 0.00 0.00 96 1009.2
20260906074125 71 82 0.0 0.0 0.00 0.00 0.00 96 1009.2
20260906073620 71 82 0.0 0.0 0.00 0.00 0.00 96 1009.2
20260906073115 71 84 0.0 0.0 0.00 0.00 0.00 96 1009.4
20260906072610 71 84 0.0 0.0 0.00 0.00 0.00 96 1009.4
20260906072106 71 84 0.0 0.0 0.00 0.00 0.00 96 1009.5
20260906071603 71 84 0.0 0.0 0.00 0.00 0.00 96 1009.5
20260906071103 71 83 0.0 0.0 0.00 0.00 0.00 96 1009.7
20260906070559 71 83 0.0 0.0 0.00 0.00 0.00 96 1009.5
20260906070054 71 84 0.0 0.0 0.00 0.00 0.00 96 1009.5
20260906065554 72 82 0.0 0.0 0.00 0.00 0.00 95 1009.5
20260906065049 72 82 0.0 0.0 0.00 0.00 0.00 95 1009.5
20260906064545 72 82 0.0 0.0 0.00 0.00 0.00 95 1009.4
20260906064040 72 82 0.0 0.0 0.00 0.00 0.00 95 1009.7
20260906063535 72 83 0.0 0.0 0.00 0.00 0.00 95 1009.5
20260906063032 72 82 0.0 0.0 0.00 0.00 0.00 95 1009.9
20260906062526 72 82 0.0 0.0 0.00 0.00 0.00 94 1009.6
20260906062021 72 83 0.0 0.0 0.00 0.00 0.00 94 1009.4
20260906061517 72 80 0.0 0.0 0.00 0.00 0.00 94 1009.8
20260906061016 72 83 0.0 0.0 0.00 0.00 0.00 94 1009.9
20260906060513 72 82 0.0 0.0 0.00 0.00 0.00 94 1009.6
20260906060010 72 68 0.0 0.0 0.00 0.00 0.00 94 1009.9
20260906055505 73 80 0.0 0.0 0.00 0.00 0.00 94 1010.0
20260906055001 73 80 0.0 0.0 0.00 0.00 0.00 94 1009.8
20260906054500 73 80 0.0 0.0 0.00 0.00 0.00 93 1009.8
20260906053956 73 82 0.0 0.0 0.00 0.00 0.00 93 1009.7
20260906053452 73 82 0.0 0.0 0.00 0.00 0.00 94 1009.9
20260906052948 73 82 0.0 0.0 0.00 0.00 0.00 93 1009.8
20260906052444 73 84 0.0 0.0 0.00 0.00 0.00 93 1009.7
20260906051940 73 82 0.0 0.0 0.00 0.00 0.00 93 1009.7
20260906051436 73 84 0.0 0.0 0.00 0.00 0.00 93 1009.7
20260906050931 73 84 0.0 0.0 0.00 0.00 0.00 93 1009.5
20260906050431 73 84 0.0 0.0 0.00 0.00 0.00 93 1009.8
20260906045930 73 84 0.0 0.0 0.00 0.00 0.00 93 1009.6
20260906045429 73 84 0.0 0.0 0.00 0.00 0.00 93 1009.8
20260906044926 73 78 0.0 0.0 0.00 0.00 0.00 93 1009.6
20260906044426 73 78 0.0 0.0 0.00 0.00 0.00 92 1009.5
20260906043921 73 78 0.0 0.0 0.00 0.00 0.00 92 1009.7
20260906043417 73 78 0.0 0.0 0.00 0.00 0.00 92 1009.8
20260906042913 74 78 0.0 0.0 0.00 0.00 0.00 92 1009.7
20260906042412 74 78 0.0 0.0 0.00 0.00 0.00 92 1009.9
20260906041907 74 78 0.0 0.0 0.00 0.00 0.00 91 1009.9
20260906041403 74 78 0.0 0.0 0.00 0.00 0.00 91 1009.8
20260906040902 74 78 0.0 0.0 0.00 0.00 0.00 90 1009.7
20260906040357 74 78 0.0 0.0 0.00 0.00 0.00 90 1009.6
20260906035854 74 77 0.0 0.0 0.00 0.00 0.00 90 1009.6
20260906035349 74 77 0.0 0.0 0.00 0.00 0.00 90 1009.6
20260906034844 74 83 0.0 0.0 0.00 0.00 0.00 90 1009.8
20260906034344 74 82 0.0 0.0 0.00 0.00 0.00 89 1009.8
20260906033840 74 82 0.0 0.0 0.00 0.00 0.00 89 1009.7
20260906033339 74 82 0.0 0.0 0.00 0.00 0.00 89 1009.6
20260906032835 75 78 0.0 0.0 0.00 0.00 0.00 88 1009.6
20260906032331 75 82 0.0 0.0 0.00 0.00 0.00 88 1009.8
20260906031826 75 87 0.0 0.0 0.00 0.00 0.00 88 1009.6
20260906031321 75 87 0.0 0.0 0.00 0.00 0.00 88 1009.6
20260906030821 75 59 1.0 1.0 0.00 0.00 0.00 87 1009.9
20260906030316 75 86 0.0 0.0 0.00 0.00 0.00 88 1009.7
20260906025811 75 86 0.0 0.0 0.00 0.00 0.00 88 1009.4
20260906025306 74 86 0.0 0.0 0.00 0.00 0.00 88 1009.6
20260906024804 74 86 0.0 0.0 0.00 0.00 0.00 88 1009.4
20260906024303 75 86 0.0 0.0 0.00 0.00 0.00 88 1009.2
20260906023759 74 86 0.0 0.0 0.00 0.00 0.00 88 1009.6
20260906023254 75 86 0.0 0.0 0.00 0.00 0.00 88 1009.4
20260906022749 75 86 0.0 0.0 0.00 0.00 0.00 88 1009.3
20260906022244 75 86 0.0 0.0 0.00 0.00 0.00 88 1009.3
20260906021741 75 86 0.0 0.0 0.00 0.00 0.00 87 1009.1
20260906021240 75 87 0.0 0.0 0.00 0.00 0.00 87 1009.0
20260906020735 75 87 0.0 0.0 0.00 0.00 0.00 87 1008.8
20260906020234 75 87 0.0 0.0 0.00 0.00 0.00 86 1008.9
20260906015729 76 86 0.0 0.0 0.00 0.00 0.00 85 1008.8
20260906015227 76 86 0.0 0.0 0.00 0.00 0.00 85 1008.8
20260906014722 76 87 0.0 0.0 0.00 0.00 0.00 84 1008.5
20260906014218 76 86 0.0 0.0 0.00 0.00 0.00 84 1008.7
20260906013714 76 86 0.0 0.0 0.00 0.00 0.00 84 1008.7
20260906013214 76 87 0.0 0.0 0.00 0.00 0.00 84 1008.9
20260906012710 77 86 0.0 0.0 0.00 0.00 0.00 83 1008.5
20260906012210 77 86 0.0 0.0 0.00 0.00 0.00 83 1008.7
20260906011705 77 86 0.0 0.0 0.00 0.00 0.00 82 1008.7
20260906011159 77 86 0.0 0.0 0.00 0.00 0.00 82 1008.2
20260906010655 78 86 0.0 0.0 0.00 0.00 0.00 81 1008.4
20260906010151 78 86 0.0 0.0 0.00 0.00 0.00 81 1008.3
20260906005650 78 87 0.0 0.0 0.00 0.00 0.00 80 1008.4
20260906005150 79 86 0.0 0.0 0.00 0.00 0.00 79 1008.1
20260906004650 79 86 0.0 0.0 0.00 0.00 0.00 78 1008.4
20260906004145 80 87 0.0 0.0 0.00 0.00 0.00 78 1008.2
20260906003640 80 87 0.0 0.0 0.00 0.00 0.00 77 1008.5
20260906003136 81 86 0.0 0.0 0.00 0.00 0.00 76 1008.3
20260906002636 81 87 0.0 0.0 0.00 0.00 0.00 74 1008.7
20260906002130 82 87 0.0 0.0 0.00 0.00 0.00 73 1008.7
20260906001626 83 87 0.0 0.0 0.00 0.00 0.00 71 1008.8
20260906001125 84 81 0.0 0.0 0.00 0.00 0.00 69 1008.4
20260906000621 84 80 0.0 0.0 0.00 0.00 0.00 67 1008.8
20260906000117 84 67 0.0 0.0 0.00 0.00 0.00 66 1009.0
20260905235615 85 65 1.0 1.0 0.00 0.00 0.00 64 1008.8
20260905235111 85 66 0.0 1.0 0.00 0.00 0.00 63 1008.9
20260905234606 86 61 1.0 1.0 0.00 0.00 0.00 61 1008.9
20260905234101 86 67 0.0 0.0 0.00 0.00 0.00 61 1009.0
20260905233601 86 67 0.0 1.0 0.00 0.00 0.00 61 1008.8
20260905233056 86 69 0.0 1.0 0.00 0.00 0.00 61 1009.1
20260905232551 86 88 0.0 1.0 0.00 0.00 0.00 62 1009.0
20260905232047 86 59 1.0 1.0 0.00 0.00 0.00 60 1008.9
20260905231542 87 59 1.0 3.0 0.00 0.00 0.00 59 1008.9
20260905231038 87 88 1.0 2.0 0.00 0.00 0.00 58 1008.7
20260905230537 87 32 2.0 2.0 0.00 0.00 0.00 58 1008.8
20260905230036 88 89 0.0 2.0 0.00 0.00 0.00 57 1008.9
20260905225531 88 20 1.0 3.0 0.00 0.00 0.00 54 1008.7
20260905225027 88 110 0.0 1.0 0.00 0.00 0.00 55 1009.0
20260905224526 87 228 1.0 7.0 0.00 0.00 0.00 56 1008.9
20260905224026 86 92 2.0 3.0 0.00 0.00 0.00 58 1008.9
20260905223524 86 59 1.0 2.0 0.00 0.00 0.00 60 1008.9
20260905223020 85 61 0.0 2.0 0.00 0.00 0.00 62 1008.9
20260905222519 85 84 1.0 5.0 0.00 0.00 0.00 61 1009.0
20260905222015 86 63 1.0 6.0 0.00 0.00 0.00 58 1009.1
20260905221511 86 348 2.0 7.0 0.00 0.00 0.00 57 1009.2
20260905221007 88 90 2.0 7.0 0.00 0.00 0.00 56 1009.2
20260905220503 91 141 2.0 3.0 0.00 0.00 0.00 51 1009.4
20260905220002 98 177 3.0 7.0 0.00 0.00 0.00 45 1009.8
20260905215458 102 70 1.0 2.0 0.00 0.00 0.00 36 1009.6
20260905214954 101 8 2.0 3.0 0.00 0.00 0.00 35 1009.1
20260905214449 101 97 1.0 1.0 0.00 0.00 0.00 34 1009.2
20260905213949 100 86 0.0 1.0 0.00 0.00 0.00 34 1009.0
20260905213445 100 81 0.0 1.0 0.00 0.00 0.00 35 1009.0
20260905212940 100 60 3.0 5.0 0.00 0.00 0.00 34 1009.2
20260905212435 101 96 0.0 1.0 0.00 0.00 0.00 34 1009.2
20260905211934 101 140 1.0 2.0 0.00 0.00 0.00 33 1009.5
20260905211430 101 107 1.0 2.0 0.00 0.00 0.00 34 1009.6
20260905210926 101 105 1.0 2.0 0.00 0.00 0.00 34 1009.4
20260905210426 102 135 1.0 1.0 0.00 0.00 0.00 33 1009.3
20260905205926 101 91 0.0 2.0 0.00 0.00 0.00 33 1009.7
20260905205420 101 55 0.0 0.0 0.00 0.00 0.00 33 1009.4
20260905204920 101 88 0.0 0.0 0.00 0.00 0.00 34 1009.5
20260905204416 101 308 3.0 3.0 0.00 0.00 0.00 34 1009.7
20260905203915 101 61 1.0 2.0 0.00 0.00 0.00 34 1009.9
20260905203410 100 135 1.0 2.0 0.00 0.00 0.00 34 1009.9
20260905202906 100 152 1.0 2.0 0.00 0.00 0.00 34 1010.3
20260905202401 100 100 0.0 0.0 0.00 0.00 0.00 34 1010.1
20260905201856 100 66 0.0 2.0 0.00 0.00 0.00 33 1010.1
20260905201352 100 143 2.0 3.0 0.00 0.00 0.00 34 1010.1
20260905200851 101 152 1.0 2.0 0.00 0.00 0.00 34 1010.2
20260905200348 101 108 3.0 5.0 0.00 0.00 0.00 33 1010.1
20260905195845 102 87 1.0 2.0 0.00 0.00 0.00 33 1010.4
20260905195341 102 152 2.0 2.0 0.00 0.00 0.00 33 1010.5
20260905194837 102 40 1.0 1.0 0.00 0.00 0.00 32 1010.5
20260905194336 103 76 3.0 3.0 0.00 0.00 0.00 32 1010.6
20260905193835 103 29 1.0 2.0 0.00 0.00 0.00 29 1010.6
20260905193330 102 133 1.0 2.0 0.00 0.00 0.00 31 1010.8
20260905192826 102 151 2.0 2.0 0.00 0.00 0.00 35 1010.8
20260905192322 100 83 0.0 1.0 0.00 0.00 0.00 37 1010.7
20260905191821 101 140 1.0 1.0 0.00 0.00 0.00 37 1010.7
20260905191320 103 106 1.0 1.0 0.00 0.00 0.00 34 1011.1
20260905190819 104 79 0.0 2.0 0.00 0.00 0.00 32 1010.8
20260905190313 103 76 0.0 1.0 0.00 0.00 0.00 33 1011.0
20260905185812 100 125 1.0 3.0 0.00 0.00 0.00 35 1011.0
20260905185307 101 78 2.0 8.0 0.00 0.00 0.00 35 1011.2
20260905184806 103 100 2.0 3.0 0.00 0.00 0.00 34 1011.3
20260905184305 104 90 1.0 6.0 0.00 0.00 0.00 34 1011.3
20260905183759 104 84 1.0 3.0 0.00 0.00 0.00 34 1011.3
20260905183254 104 82 0.0 5.0 0.00 0.00 0.00 34 1011.3
20260905182753 104 94 0.0 1.0 0.00 0.00 0.00 33 1011.6
20260905182247 104 71 2.0 2.0 0.00 0.00 0.00 34 1011.4
20260905181743 102 94 0.0 1.0 0.00 0.00 0.00 35 1011.8
20260905181242 103 24 1.0 2.0 0.00 0.00 0.00 34 1011.8
20260905180737 102 123 1.0 1.0 0.00 0.00 0.00 35 1011.7
20260905180232 102 7 2.0 3.0 0.00 0.00 0.00 35 1012.1
20260905175726 102 255 2.0 2.0 0.00 0.00 0.00 34 1011.7
20260905175221 101 95 1.0 3.0 0.00 0.00 0.00 35 1012.0
20260905174716 100 120 2.0 5.0 0.00 0.00 0.00 37 1012.0
20260905174212 100 42 3.0 3.0 0.00 0.00 0.00 37 1012.0
20260905173708 101 44 0.0 3.0 0.00 0.00 0.00 36 1012.0
20260905173203 99 66 2.0 5.0 0.00 0.00 0.00 39 1012.1
20260905172703 100 60 3.0 5.0 0.00 0.00 0.00 38 1012.2
20260905172157 102 74 0.0 2.0 0.00 0.00 0.00 37 1012.2
20260905171653 102 39 1.0 5.0 0.00 0.00 0.00 38 1012.4
20260905171149 102 126 2.0 3.0 0.00 0.00 0.00 38 1012.4
20260905170646 101 59 0.0 1.0 0.00 0.00 0.00 38 1012.3
20260905170141 100 101 2.0 2.0 0.00 0.00 0.00 38 1012.4
20260905165640 99 109 0.0 3.0 0.00 0.00 0.00 40 1012.4
20260905165136 100 122 1.0 1.0 0.00 0.00 0.00 39 1012.3
20260905164631 101 7 3.0 5.0 0.00 0.00 0.00 39 1012.5
20260905164130 102 42 1.0 1.0 0.00 0.00 0.00 39 1012.5
20260905163626 101 22 1.0 2.0 0.00 0.00 0.00 40 1012.4
20260905163122 99 117 2.0 3.0 0.00 0.00 0.00 44 1012.5
20260905162618 99 40 2.0 2.0 0.00 0.00 0.00 44 1012.5
20260905162117 101 32 2.0 2.0 0.00 0.00 0.00 40 1012.5
20260905161617 99 60 1.0 2.0 0.00 0.00 0.00 44 1012.5
20260905161115 99 108 1.0 1.0 0.00 0.00 0.00 44 1012.6
20260905160615 98 172 1.0 1.0 0.00 0.00 0.00 45 1012.8
20260905160115 100 69 0.0 1.0 0.00 0.00 0.00 44 1012.6
20260905155609 99 106 1.0 2.0 0.00 0.00 0.00 45 1012.6
20260905155108 98 97 0.0 1.0 0.00 0.00 0.00 46 1012.6
20260905154608 98 57 1.0 1.0 0.00 0.00 0.00 47 1012.6
20260905154104 98 96 0.0 2.0 0.00 0.00 0.00 49 1012.6
20260905153559 98 139 1.0 2.0 0.00 0.00 0.00 47 1012.6